Philadelphia Wings Airport, PA

3:09 AM EDT on May 26, 2018 (GMT -0400)
Philadelphia Wings Airport

Weather History for KLOM - January, 2014

Change the Weather History Date:

Friday, January 24, 2014

  Actual Average (WUND) Record (WUND)
Temperature  
Mean Temperature 16 °F -  
Max Temperature 21 °F - - (-1)
Min Temperature 10 °F - - (-1)
Degree Days  
Heating Degree Days 50    
Moisture  
Dew Point 1 °F    
Average Humidity 51    
Maximum Humidity 67    
Minimum Humidity 39    
Precipitation  
Precipitation 0.00 in - - ()
Sea Level Pressure  
Sea Level Pressure 30.30 in    
Wind  
Wind Speed 5 mph (WSW)    
Max Wind Speed 13 mph    
Max Gust Speed 21 mph    
Visibility 10 miles    
Events      
Averages and records for this station are not official NWS values.
T = Trace of Precipitation, MM = Missing Value Source: NWS Daily Summary

Daily Weather History Graph

Daily Weather History Graph

Search for Another Location

Airport or City:

Astronomy

Jan. 24, 2014 Rise Set
Actual Time 7:16 AM EST 5:10 PM EST
Civil Twilight 6:47 AM EST 5:39 PM EST
Nautical Twilight 6:14 AM EST 6:12 PM EST
Astronomical Twilight 5:42 AM EST 6:44 PM EST
Moon 12:41 AM EST (1/24) 11:27 AM EST (1/24)
Length of Visible Light 10h 52m
Length of Day
9h 53m
Last Quarter, 45% of the Moon is Illuminated
Jan 24
Last Quarter
Jan 30
New
Feb 6
First Quarter
Feb 14
Full
Feb 22
Last Quarter

Hourly Weather History & Observations

Time (EST) Temp. Windchill Dew Point Humidity Pressure Visibility Wind Dir Wind Speed Gust Speed Precip Events Conditions
12:15 AM 14.0 °F - 1.4 °F 57% 30.33 in 10.0 mi Calm Calm - N/A   Clear
12:35 AM 14.0 °F 3.9 °F 3.2 °F 62% 30.33 in 10.0 mi West 6.9 mph - N/A   Clear
12:55 AM 14.0 °F 8.2 °F 3.2 °F 62% 30.33 in 10.0 mi WNW 3.5 mph - N/A   Clear
1:15 AM 14.0 °F 8.2 °F 1.4 °F 57% 30.33 in 10.0 mi WNW 3.5 mph - N/A   Clear
1:35 AM 14.0 °F 5.1 °F 1.4 °F 57% 30.32 in 10.0 mi WNW 5.8 mph - N/A   Clear
1:55 AM 14.0 °F - 1.4 °F 57% 30.33 in 10.0 mi Calm Calm - N/A   Clear
2:15 AM 12.2 °F - 1.4 °F 62% 30.33 in 10.0 mi Calm Calm - N/A   Clear
2:35 AM 12.2 °F 6.1 °F 1.4 °F 62% 30.34 in 10.0 mi West 3.5 mph - N/A   Clear
2:55 AM 12.2 °F - 1.4 °F 62% 30.34 in 10.0 mi Calm Calm - N/A   Clear
3:15 AM 12.2 °F 6.1 °F 1.4 °F 62% 30.34 in 10.0 mi West 3.5 mph - N/A   Clear
3:35 AM 12.2 °F - 1.4 °F 62% 30.34 in 10.0 mi Calm Calm - N/A   Clear
3:55 AM 10.4 °F 4.0 °F 1.4 °F 67% 30.34 in 10.0 mi West 3.5 mph - N/A   Clear
4:15 AM 10.4 °F - 1.4 °F 67% 30.34 in 10.0 mi Calm Calm - N/A   Clear
4:35 AM 10.4 °F 4.0 °F -0.4 °F 62% 30.35 in 10.0 mi WSW 3.5 mph - N/A   Clear
4:55 AM 10.4 °F - 1.4 °F 67% 30.36 in 10.0 mi Calm Calm - N/A   Clear
5:15 AM 10.4 °F 4.0 °F 1.4 °F 67% 30.36 in 10.0 mi West 3.5 mph - N/A   Clear
5:35 AM 12.2 °F 4.3 °F -0.4 °F 57% 30.37 in 10.0 mi West 4.6 mph - N/A   Clear
5:55 AM 12.2 °F 4.3 °F -0.4 °F 57% 30.38 in 10.0 mi West 4.6 mph - N/A   Clear
6:15 AM 12.2 °F 4.3 °F -0.4 °F 57% 30.39 in 10.0 mi West 4.6 mph - N/A   Clear
6:35 AM 12.2 °F - -0.4 °F 57% 30.39 in 10.0 mi Calm Calm - N/A   Clear
6:55 AM 12.2 °F 2.9 °F -0.4 °F 57% 30.40 in 10.0 mi WNW 5.8 mph - N/A   Clear
7:15 AM 12.2 °F 4.3 °F -0.4 °F 57% 30.41 in 10.0 mi WNW 4.6 mph - N/A   Clear
7:35 AM 12.2 °F 4.3 °F -0.4 °F 57% 30.41 in 10.0 mi West 4.6 mph - N/A   Clear
7:55 AM 12.2 °F 0.7 °F -0.4 °F 57% 30.41 in 10.0 mi WNW 8.1 mph - N/A   Clear
8:15 AM 12.2 °F 0.7 °F -0.4 °F 57% 30.41 in 10.0 mi West 8.1 mph - N/A   Clear
8:35 AM 14.0 °F 2.9 °F -0.4 °F 53% 30.42 in 10.0 mi WNW 8.1 mph - N/A   Clear
8:55 AM 14.0 °F 3.9 °F -0.4 °F 53% 30.42 in 10.0 mi West 6.9 mph - N/A   Clear
9:15 AM 14.0 °F 2.0 °F -0.4 °F 53% 30.42 in 10.0 mi WNW 9.2 mph - N/A   Clear
9:35 AM 14.0 °F 5.1 °F -0.4 °F 53% 30.43 in 10.0 mi NW 5.8 mph 16.1 mph N/A   Clear
9:55 AM 15.8 °F 4.2 °F -0.4 °F 49% 30.43 in 10.0 mi West 9.2 mph - N/A   Clear
10:15 AM 17.6 °F 5.0 °F -0.4 °F 45% 30.43 in 10.0 mi WNW 11.5 mph 16.1 mph N/A   Clear
10:35 AM 17.6 °F 4.3 °F -2.2 °F 42% 30.42 in 10.0 mi WNW 12.7 mph 20.7 mph N/A   Clear
10:55 AM 17.6 °F 5.7 °F -2.2 °F 42% 30.42 in 10.0 mi WNW 10.4 mph 17.3 mph N/A   Clear
11:15 AM 17.6 °F 7.3 °F -2.2 °F 42% 30.41 in 10.0 mi WNW 8.1 mph 16.1 mph N/A   Clear
11:35 AM 19.4 °F 11.5 °F -0.4 °F 42% 30.40 in 10.0 mi West 5.8 mph 18.4 mph N/A   Clear
11:55 AM 19.4 °F 9.5 °F -0.4 °F 42% 30.39 in 10.0 mi West 8.1 mph - N/A   Clear
12:15 PM 19.4 °F 7.9 °F -0.4 °F 42% 30.38 in 10.0 mi West 10.4 mph 16.1 mph N/A   Clear
12:35 PM 19.4 °F 8.6 °F -0.4 °F 42% 30.36 in 10.0 mi WSW 9.2 mph - N/A   Clear
12:55 PM 19.4 °F 9.5 °F -0.4 °F 42% 30.34 in 10.0 mi West 8.1 mph - N/A   Clear
1:15 PM 21.2 °F 11.7 °F -0.4 °F 39% 30.33 in 10.0 mi West 8.1 mph - N/A   Clear
1:35 PM 19.4 °F 7.9 °F -0.4 °F 42% 30.32 in 10.0 mi WNW 10.4 mph - N/A   Clear
1:55 PM 21.2 °F 14.9 °F -0.4 °F 39% 30.31 in 10.0 mi WSW 4.6 mph - N/A   Clear
2:15 PM 21.2 °F 13.6 °F 1.4 °F 42% 30.30 in 10.0 mi WSW 5.8 mph - N/A   Clear
2:35 PM 21.2 °F 13.6 °F 1.4 °F 42% 30.29 in 10.0 mi WNW 5.8 mph - N/A   Clear
2:55 PM 21.2 °F 11.7 °F 1.4 °F 42% 30.29 in 10.0 mi WSW 8.1 mph - N/A   Clear
3:15 PM 21.2 °F 10.1 °F -0.4 °F 39% 30.29 in 10.0 mi WSW 10.4 mph - N/A   Clear
3:35 PM 21.2 °F 11.7 °F -0.4 °F 39% 30.28 in 10.0 mi WSW 8.1 mph - N/A   Clear
3:55 PM 19.4 °F 9.5 °F -0.4 °F 42% 30.28 in 10.0 mi WSW 8.1 mph - N/A   Clear
4:15 PM 19.4 °F 9.5 °F -0.4 °F 42% 30.27 in 10.0 mi WSW 8.1 mph - N/A   Clear
4:35 PM 19.4 °F 7.9 °F -2.2 °F 39% 30.27 in 10.0 mi West 10.4 mph - N/A   Clear
4:55 PM 19.4 °F 11.5 °F -2.2 °F 39% 30.26 in 10.0 mi WSW 5.8 mph - N/A   Clear
5:15 PM 17.6 °F 7.3 °F -0.4 °F 45% 30.25 in 10.0 mi SW 8.1 mph - N/A   Clear
5:35 PM 17.6 °F 8.2 °F -2.2 °F 42% 30.26 in 10.0 mi SW 6.9 mph - N/A   Clear
5:55 PM 17.6 °F 9.3 °F -2.2 °F 42% 30.25 in 10.0 mi SW 5.8 mph - N/A   Clear
6:15 PM 17.6 °F 9.3 °F -0.4 °F 45% 30.26 in 10.0 mi SW 5.8 mph - N/A   Clear
6:35 PM 17.6 °F 10.7 °F -0.4 °F 45% 30.24 in 10.0 mi SSW 4.6 mph - N/A   Clear
6:55 PM 15.8 °F 10.2 °F -0.4 °F 49% 30.23 in 10.0 mi SSW 3.5 mph - N/A   Clear
7:15 PM 15.8 °F 10.2 °F -0.4 °F 49% 30.22 in 10.0 mi SW 3.5 mph - N/A   Clear
7:35 PM 17.6 °F 7.3 °F -0.4 °F 45% 30.21 in 10.0 mi SSW 8.1 mph - N/A   Clear
7:55 PM 17.6 °F 7.3 °F -0.4 °F 45% 30.21 in 10.0 mi SSW 8.1 mph - N/A   Clear
8:15 PM 17.6 °F 9.3 °F -0.4 °F 45% 30.20 in 10.0 mi SSW 5.8 mph - N/A   Clear
8:35 PM 17.6 °F 12.3 °F -0.4 °F 45% 30.19 in 10.0 mi SSW 3.5 mph - N/A   Clear
8:55 PM 17.6 °F 10.7 °F 1.4 °F 49% 30.17 in 10.0 mi SSW 4.6 mph - N/A   Clear
9:15 PM 17.6 °F 10.7 °F 1.4 °F 49% 30.16 in 10.0 mi SSW 4.6 mph - N/A   Clear
9:35 PM 15.8 °F 8.6 °F 3.2 °F 58% 30.15 in 10.0 mi SSW 4.6 mph - N/A   Clear
9:55 PM 15.8 °F 10.2 °F 3.2 °F 58% 30.14 in 10.0 mi South 3.5 mph - N/A   Clear
10:15 PM 17.6 °F 12.3 °F 5.0 °F 58% 30.14 in 10.0 mi South 3.5 mph - N/A   Clear
10:35 PM 17.6 °F 9.3 °F 5.0 °F 58% 30.12 in 10.0 mi South 5.8 mph - N/A   Clear
10:55 PM 17.6 °F 9.3 °F 5.0 °F 58% 30.11 in 10.0 mi South 5.8 mph - N/A   Clear
11:15 PM 17.6 °F 9.3 °F 5.0 °F 58% 30.10 in 10.0 mi SSW 5.8 mph - N/A   Clear
11:35 PM 17.6 °F 7.3 °F 5.0 °F 58% 30.08 in 10.0 mi South 8.1 mph - N/A   Clear
11:55 PM 17.6 °F 10.7 °F 5.0 °F 58% 30.06 in 10.0 mi South 4.6 mph - N/A   Clear